Time,TemperatureF,DewpointF,PressureIn,WindDirection,WindDirectionDegrees,WindSpeedMPH,WindSpeedGustMPH,Humidity,HourlyPrecipIn,Conditions,Clouds,dailyrainin,SoftwareType,DateUTC
2013-04-27 00:00:00,70.4,42.9,29.99,South,184,13.0,13.0,37,0.00,,,0.00,Wunderground v.1.15,2013-04-27 07:00:00,
2013-04-27 00:10:00,70.6,42.3,29.99,South,188,12.0,12.0,36,0.00,,,0.00,Wunderground v.1.15,2013-04-27 07:10:00,
2013-04-27 00:20:00,69.8,42.3,29.99,South,184,12.0,13.0,37,0.00,,,0.00,Wunderground v.1.15,2013-04-27 07:20:00,
2013-04-27 00:30:00,69.7,42.3,29.99,South,188,12.0,12.0,37,0.00,,,0.00,Wunderground v.1.15,2013-04-27 07:30:00,
2013-04-27 00:40:00,69.5,42.1,29.99,SSW,195,12.0,12.0,37,0.00,,,0.00,Wunderground v.1.15,2013-04-27 07:40:00,
2013-04-27 00:50:00,69.6,41.5,29.99,SSW,203,12.0,13.0,36,0.00,,,0.00,Wunderground v.1.15,2013-04-27 07:50:00,
2013-04-27 01:00:00,69.5,42.1,29.99,SSW,198,12.0,12.0,37,0.00,,,0.00,Wunderground v.1.15,2013-04-27 08:00:00,
2013-04-27 01:10:00,69.4,42.0,29.99,SSW,198,11.0,11.0,37,0.00,,,0.00,Wunderground v.1.15,2013-04-27 08:10:00,
2013-04-27 01:20:00,69.1,41.7,30.00,SSW,202,9.0,9.0,37,0.00,,,0.00,Wunderground v.1.15,2013-04-27 08:20:00,
2013-04-27 01:30:00,68.5,41.2,29.99,SSW,205,2.0,2.0,37,0.00,,,0.00,Wunderground v.1.15,2013-04-27 08:30:00,
2013-04-27 01:40:00,67.7,41.8,29.99,SSW,205,0.0,10.0,39,0.00,,,0.00,Wunderground v.1.15,2013-04-27 08:40:00,
2013-04-27 01:50:00,67.6,42.4,29.99,SSW,205,1.0,10.0,40,0.00,,,0.00,Wunderground v.1.15,2013-04-27 08:50:00,
2013-04-27 02:00:00,68.2,42.3,29.99,SSW,205,1.0,10.0,39,0.00,,,0.00,Wunderground v.1.15,2013-04-27 09:00:00,
2013-04-27 02:10:00,68.2,42.3,29.99,West,266,2.0,2.0,39,0.00,,,0.00,Wunderground v.1.15,2013-04-27 09:10:00,
2013-04-27 02:20:00,67.1,42.0,29.99,West,265,0.0,10.0,40,0.00,,,0.00,Wunderground v.1.15,2013-04-27 09:20:00,
2013-04-27 02:30:00,66.2,41.8,29.99,West,265,0.0,10.0,41,0.00,,,0.00,Wunderground v.1.15,2013-04-27 09:30:00,
2013-04-27 02:40:00,66.1,41.7,29.99,SSW,207,3.0,10.0,41,0.00,,,0.00,Wunderground v.1.15,2013-04-27 09:40:00,
2013-04-27 02:50:00,65.9,41.5,29.99,South,190,4.0,10.0,41,0.00,,,0.00,Wunderground v.1.15,2013-04-27 09:50:00,
2013-04-27 03:00:00,65.9,41.5,29.99,South,182,6.0,10.0,41,0.00,,,0.00,Wunderground v.1.15,2013-04-27 10:00:00,
2013-04-27 03:10:00,65.1,40.8,29.99,South,182,4.0,10.0,41,0.00,,,0.00,Wunderground v.1.15,2013-04-27 10:10:00,
2013-04-27 03:20:00,63.7,40.2,30.00,South,182,2.0,10.0,42,0.00,,,0.00,Wunderground v.1.15,2013-04-27 10:20:00,
2013-04-27 03:30:00,63.2,40.3,30.00,South,182,2.0,10.0,43,0.00,,,0.00,Wunderground v.1.15,2013-04-27 10:30:00,
2013-04-27 03:40:00,63.3,40.4,30.00,South,182,2.0,10.0,43,0.00,,,0.00,Wunderground v.1.15,2013-04-27 10:40:00,
2013-04-27 03:50:00,63.7,40.2,30.00,South,182,3.0,3.0,42,0.00,,,0.00,Wunderground v.1.15,2013-04-27 10:50:00,
2013-04-27 04:00:00,63.2,39.7,30.00,South,182,2.0,2.0,42,0.00,,,0.00,Wunderground v.1.15,2013-04-27 11:00:00,
2013-04-27 04:10:00,62.7,39.9,30.00,South,182,0.0,10.0,43,0.00,,,0.00,Wunderground v.1.15,2013-04-27 11:10:00,
2013-04-27 04:20:00,62.3,39.5,30.00,South,182,0.0,10.0,43,0.00,,,0.00,Wunderground v.1.15,2013-04-27 11:20:00,
2013-04-27 04:30:00,62.9,40.0,30.00,South,182,0.0,10.0,43,0.00,,,0.00,Wunderground v.1.15,2013-04-27 11:30:00,
2013-04-27 04:40:00,61.8,39.6,30.01,South,182,0.0,10.0,44,0.00,,,0.00,Wunderground v.1.15,2013-04-27 11:40:00,
2013-04-27 04:50:00,62.0,39.8,30.01,South,182,0.0,10.0,44,0.00,,,0.00,Wunderground v.1.15,2013-04-27 11:50:00,
2013-04-27 05:00:00,62.8,40.0,30.02,South,182,0.0,10.0,43,0.00,,,0.00,Wunderground v.1.15,2013-04-27 12:00:00,
2013-04-27 05:10:00,63.2,39.1,30.01,South,182,0.0,10.0,41,0.00,,,0.00,Wunderground v.1.15,2013-04-27 12:10:00,
2013-04-27 05:20:00,63.1,39.0,30.01,SSE,163,2.0,10.0,41,0.00,,,0.00,Wunderground v.1.15,2013-04-27 12:20:00,
2013-04-27 05:30:00,61.8,38.4,30.01,SSE,163,1.0,1.0,42,0.00,,,0.00,Wunderground v.1.15,2013-04-27 12:30:00,
2013-04-27 05:40:00,61.1,38.4,30.01,SSE,163,0.0,10.0,43,0.00,,,0.00,Wunderground v.1.15,2013-04-27 12:40:00,
2013-04-27 05:50:00,61.1,39.0,30.01,SSE,163,0.0,10.0,44,0.00,,,0.00,Wunderground v.1.15,2013-04-27 12:50:00,
2013-04-27 06:00:00,61.1,39.0,30.02,SSE,163,0.0,10.0,44,0.00,,,0.00,Wunderground v.1.15,2013-04-27 13:00:00,
2013-04-27 06:10:00,60.4,38.9,30.02,SSE,163,0.0,10.0,45,0.00,,,0.00,Wunderground v.1.15,2013-04-27 13:10:00,
2013-04-27 06:20:00,59.4,38.6,30.03,SSE,163,0.0,10.0,46,0.00,,,0.00,Wunderground v.1.15,2013-04-27 13:20:00,
2013-04-27 06:30:00,59.0,38.8,30.03,SSE,163,0.0,10.0,47,0.00,,,0.00,Wunderground v.1.15,2013-04-27 13:30:00,
2013-04-27 06:40:00,59.4,38.6,30.03,SSE,163,0.0,10.0,46,0.00,,,0.00,Wunderground v.1.15,2013-04-27 13:40:00,
2013-04-27 06:50:00,59.8,38.4,30.04,SSE,163,0.0,10.0,45,0.00,,,0.00,Wunderground v.1.15,2013-04-27 13:50:00,
2013-04-27 07:00:00,60.1,38.7,30.04,SSE,163,0.0,10.0,45,0.00,,,0.00,Wunderground v.1.15,2013-04-27 14:00:00,
2013-04-27 07:10:00,61.6,38.9,30.04,SSE,163,0.0,10.0,43,0.00,,,0.00,Wunderground v.1.15,2013-04-27 14:10:00,
2013-04-27 07:20:00,62.7,39.3,30.04,SSE,163,0.0,10.0,42,0.00,,,0.00,Wunderground v.1.15,2013-04-27 14:20:00,
2013-04-27 07:30:00,62.2,38.8,30.04,SSE,163,0.0,10.0,42,0.00,,,0.00,Wunderground v.1.15,2013-04-27 14:30:00,
2013-04-27 07:40:00,62.3,39.5,30.04,SSE,163,1.0,1.0,43,0.00,,,0.00,Wunderground v.1.15,2013-04-27 14:40:00,
2013-04-27 07:50:00,62.7,39.3,30.04,SSE,163,0.0,10.0,42,0.00,,,0.00,Wunderground v.1.15,2013-04-27 14:50:00,
2013-04-27 08:00:00,63.9,39.7,30.04,SSE,163,0.0,10.0,41,0.00,,,0.00,Wunderground v.1.15,2013-04-27 15:00:00,
2013-04-27 08:10:00,64.9,40.0,30.03,SSE,163,0.0,10.0,40,0.00,,,0.00,Wunderground v.1.15,2013-04-27 15:10:00,
2013-04-27 08:20:00,66.3,40.6,30.03,SSE,163,0.0,10.0,39,0.00,,,0.00,Wunderground v.1.15,2013-04-27 15:20:00,
2013-04-27 08:30:00,67.6,40.4,30.03,SSE,163,0.0,10.0,37,0.00,,,0.00,Wunderground v.1.15,2013-04-27 15:30:00,
2013-04-27 08:40:00,67.9,40.7,30.03,SSE,163,0.0,10.0,37,0.00,,,0.00,Wunderground v.1.15,2013-04-27 15:40:00,
2013-04-27 08:50:00,68.7,41.4,30.03,SSE,163,0.0,10.0,37,0.00,,,0.00,Wunderground v.1.15,2013-04-27 15:50:00,
2013-04-27 09:00:00,70.2,42.0,30.03,SSE,163,0.0,10.0,36,0.00,,,0.00,Wunderground v.1.15,2013-04-27 16:00:00,
2013-04-27 09:10:00,70.2,41.3,30.03,SSE,163,0.0,10.0,35,0.00,,,0.00,Wunderground v.1.15,2013-04-27 16:10:00,
2013-04-27 09:20:00,70.5,41.5,30.03,WSW,254,1.0,10.0,35,0.00,,,0.00,Wunderground v.1.15,2013-04-27 16:20:00,
2013-04-27 09:30:00,71.1,41.3,30.02,West,259,2.0,10.0,34,0.00,,,0.00,Wunderground v.1.15,2013-04-27 16:30:00,
2013-04-27 09:40:00,71.9,42.0,30.03,West,273,4.0,10.0,34,0.00,,,0.00,Wunderground v.1.15,2013-04-27 16:40:00,
2013-04-27 09:50:00,73.1,42.3,30.02,WSW,251,5.0,5.0,33,0.00,,,0.00,Wunderground v.1.15,2013-04-27 16:50:00,
2013-04-27 10:00:00,74.1,42.3,30.02,WSW,253,5.0,5.0,32,0.00,,,0.00,Wunderground v.1.15,2013-04-27 17:00:00,
2013-04-27 10:10:00,74.6,42.0,30.02,West,259,5.0,10.0,31,0.00,,,0.00,Wunderground v.1.15,2013-04-27 17:10:00,
2013-04-27 10:20:00,75.1,42.4,30.02,WSW,252,5.0,5.0,31,0.00,,,0.00,Wunderground v.1.15,2013-04-27 17:20:00,
2013-04-27 10:30:00,76.2,41.6,30.02,West,266,4.0,4.0,29,0.00,,,0.00,Wunderground v.1.15,2013-04-27 17:30:00,
2013-04-27 10:40:00,76.7,42.0,30.02,WSW,248,5.0,5.0,29,0.00,,,0.00,Wunderground v.1.15,2013-04-27 17:40:00,
2013-04-27 10:50:00,77.4,41.7,30.02,West,268,5.0,10.0,28,0.00,,,0.00,Wunderground v.1.15,2013-04-27 17:50:00,
2013-04-27 11:00:00,78.3,41.6,30.02,SW,232,6.0,6.0,27,0.00,,,0.00,Wunderground v.1.15,2013-04-27 18:00:00,
2013-04-27 11:10:00,79.2,41.3,30.02,SSW,213,5.0,10.0,26,0.00,,,0.00,Wunderground v.1.15,2013-04-27 18:10:00,
2013-04-27 11:20:00,80.0,41.0,30.01,West,277,5.0,5.0,25,0.00,,,0.00,Wunderground v.1.15,2013-04-27 18:20:00,
2013-04-27 11:30:00,80.6,41.5,30.01,NW,323,4.0,4.0,25,0.00,,,0.00,Wunderground v.1.15,2013-04-27 18:30:00,
2013-04-27 11:40:00,81.8,40.4,30.00,NW,326,3.0,10.0,23,0.00,,,0.00,Wunderground v.1.15,2013-04-27 18:40:00,
2013-04-27 11:50:00,83.0,40.2,30.00,WSW,250,3.0,10.0,22,0.00,,,0.00,Wunderground v.1.15,2013-04-27 18:50:00,
2013-04-27 12:00:00,83.9,38.5,29.99,West,279,4.0,4.0,20,0.00,,,0.00,Wunderground v.1.15,2013-04-27 19:00:00,
2013-04-27 12:10:00,85.1,38.2,29.99,NNW,340,2.0,10.0,19,0.00,,,0.00,Wunderground v.1.15,2013-04-27 19:10:00,
2013-04-27 12:20:00,85.5,38.5,29.98,West,269,3.0,3.0,19,0.00,,,0.00,Wunderground v.1.15,2013-04-27 19:20:00,
2013-04-27 12:30:00,88.0,34.5,29.97,NNW,327,1.0,10.0,15,0.00,,,0.00,Wunderground v.1.15,2013-04-27 19:30:00,
2013-04-27 12:40:00,88.8,35.2,29.96,North,350,3.0,10.0,15,0.00,,,0.00,Wunderground v.1.15,2013-04-27 19:40:00,
2013-04-27 12:50:00,88.6,31.4,29.95,NNW,340,4.0,4.0,13,0.00,,,0.00,Wunderground v.1.15,2013-04-27 19:50:00,
2013-04-27 13:00:00,88.8,31.6,29.95,NE,51,3.0,10.0,13,0.00,,,0.00,Wunderground v.1.15,2013-04-27 20:00:00,
2013-04-27 13:10:00,89.6,30.2,29.94,SSE,158,1.0,1.0,12,0.00,,,0.00,Wunderground v.1.15,2013-04-27 20:10:00,
2013-04-27 13:20:00,90.2,28.6,29.94,East,82,4.0,11.0,11,0.00,,,0.00,Wunderground v.1.15,2013-04-27 20:20:00,
2013-04-27 13:30:00,90.0,28.4,29.94,SE,130,6.0,10.0,11,0.00,,,0.00,Wunderground v.1.15,2013-04-27 20:30:00,
2013-04-27 13:40:00,89.7,30.3,29.94,SSW,198,6.0,10.0,12,0.00,,,0.00,Wunderground v.1.15,2013-04-27 20:40:00,
2013-04-27 13:50:00,89.7,30.3,29.92,WNW,294,6.0,13.0,12,0.00,,,0.00,Wunderground v.1.15,2013-04-27 20:50:00,
2013-04-27 14:00:00,89.9,30.5,29.92,SW,215,8.0,11.0,12,0.00,,,0.00,Wunderground v.1.15,2013-04-27 21:00:00,
2013-04-27 14:10:00,90.2,30.7,29.91,SW,232,9.0,9.0,12,0.00,,,0.00,Wunderground v.1.15,2013-04-27 21:10:00,
2013-04-27 14:20:00,91.5,29.6,29.91,NNE,26,2.0,10.0,11,0.00,,,0.00,Wunderground v.1.15,2013-04-27 21:20:00,
2013-04-27 14:30:00,91.3,29.4,29.90,ESE,122,5.0,10.0,11,0.00,,,0.00,Wunderground v.1.15,2013-04-27 21:30:00,
2013-04-27 14:40:00,91.5,29.6,29.89,West,271,4.0,4.0,11,0.00,,,0.00,Wunderground v.1.15,2013-04-27 21:40:00,
2013-04-27 14:50:00,91.5,29.6,29.88,SSE,149,5.0,10.0,11,0.00,,,0.00,Wunderground v.1.15,2013-04-27 21:50:00,
2013-04-27 15:00:00,91.4,29.5,29.88,West,263,8.0,10.0,11,0.00,,,0.00,Wunderground v.1.15,2013-04-27 22:00:00,
2013-04-27 15:10:00,91.7,29.7,29.88,WSW,244,8.0,13.0,11,0.00,,,0.00,Wunderground v.1.15,2013-04-27 22:10:00,
2013-04-27 15:20:00,91.2,29.3,29.87,WNW,288,12.0,12.0,11,0.00,,,0.00,Wunderground v.1.15,2013-04-27 22:20:00,
2013-04-27 15:30:00,91.1,29.3,29.87,SSW,210,10.0,10.0,11,0.00,,,0.00,Wunderground v.1.15,2013-04-27 22:30:00,
2013-04-27 15:40:00,91.9,29.9,29.86,South,185,3.0,3.0,11,0.00,,,0.00,Wunderground v.1.15,2013-04-27 22:40:00,
2013-04-27 15:50:00,92.8,28.2,29.85,ESE,113,1.0,1.0,10,0.00,,,0.00,Wunderground v.1.15,2013-04-27 22:50:00,
2013-04-27 16:00:00,92.5,28.0,29.85,NE,40,4.0,4.0,10,0.00,,,0.00,Wunderground v.1.15,2013-04-27 23:00:00,
2013-04-27 16:10:00,92.7,28.2,29.85,West,266,5.0,10.0,10,0.00,,,0.00,Wunderground v.1.15,2013-04-27 23:10:00,
2013-04-27 16:20:00,91.9,29.9,29.85,SW,219,7.0,13.0,11,0.00,,,0.00,Wunderground v.1.15,2013-04-27 23:20:00,
2013-04-27 16:30:00,91.9,29.9,29.85,WSW,256,14.0,16.0,11,0.00,,,0.00,Wunderground v.1.15,2013-04-27 23:30:00,
2013-04-27 16:40:00,91.5,29.6,29.85,West,265,14.0,14.0,11,0.00,,,0.00,Wunderground v.1.15,2013-04-27 23:40:00,
2013-04-27 16:50:00,91.6,31.8,29.85,SW,215,12.0,13.0,12,0.00,,,0.00,Wunderground v.1.15,2013-04-27 23:50:00,
2013-04-27 17:00:00,91.9,32.0,29.84,WSW,249,5.0,17.0,12,0.00,,,0.00,Wunderground v.1.15,2013-04-28 00:00:00,
2013-04-27 17:10:00,91.9,35.9,29.84,WSW,252,14.0,14.0,14,0.00,,,0.00,Wunderground v.1.15,2013-04-28 00:10:00,
2013-04-27 17:20:00,91.1,35.3,29.84,West,259,18.0,18.0,14,0.00,,,0.00,Wunderground v.1.15,2013-04-28 00:20:00,
2013-04-27 17:30:00,90.9,36.8,29.84,WNW,286,13.0,15.0,15,0.00,,,0.00,Wunderground v.1.15,2013-04-28 00:30:00,
2013-04-27 17:40:00,90.1,37.9,29.84,West,267,19.0,19.0,16,0.00,,,0.00,Wunderground v.1.15,2013-04-28 00:40:00,
2013-04-27 17:50:00,90.2,37.9,29.83,WSW,257,20.0,21.0,16,0.00,,,0.00,Wunderground v.1.15,2013-04-28 00:50:00,
2013-04-27 18:00:00,89.4,38.8,29.83,West,267,21.0,22.0,17,0.00,,,0.00,Wunderground v.1.15,2013-04-28 01:00:00,
2013-04-27 18:10:00,89.4,40.3,29.83,West,261,21.0,21.0,18,0.00,,,0.00,Wunderground v.1.15,2013-04-28 01:10:00,
2013-04-27 18:20:00,88.8,41.2,29.83,West,259,19.0,22.0,19,0.00,,,0.00,Wunderground v.1.15,2013-04-28 01:20:00,
2013-04-27 18:30:00,88.2,39.3,29.83,West,269,20.0,20.0,18,0.00,,,0.00,Wunderground v.1.15,2013-04-28 01:30:00,
2013-04-27 18:40:00,87.4,41.4,29.83,WSW,242,20.0,20.0,20,0.00,,,0.00,Wunderground v.1.15,2013-04-28 01:40:00,
2013-04-27 18:50:00,87.6,38.8,29.83,West,269,17.0,17.0,18,0.00,,,0.00,Wunderground v.1.15,2013-04-28 01:50:00,
2013-04-27 19:00:00,87.6,34.2,29.83,West,273,18.0,21.0,15,0.00,,,0.00,Wunderground v.1.15,2013-04-28 02:00:00,
2013-04-27 19:10:00,87.0,35.4,29.84,WSW,254,16.0,16.0,16,0.00,,,0.00,Wunderground v.1.15,2013-04-28 02:10:00,
2013-04-27 19:20:00,84.4,42.5,29.83,West,261,15.0,16.0,23,0.00,,,0.00,Wunderground v.1.15,2013-04-28 02:20:00,
2013-04-27 19:30:00,83.2,43.7,29.84,West,272,15.0,15.0,25,0.00,,,0.00,Wunderground v.1.15,2013-04-28 02:30:00,
2013-04-27 19:40:00,82.8,43.4,29.84,WSW,254,13.0,14.0,25,0.00,,,0.00,Wunderground v.1.15,2013-04-28 02:40:00,
2013-04-27 19:50:00,82.3,41.9,29.84,West,259,12.0,16.0,24,0.00,,,0.00,Wunderground v.1.15,2013-04-28 02:50:00,
2013-04-27 20:00:00,82.3,40.8,29.84,WSW,238,12.0,12.0,23,0.00,,,0.00,Wunderground v.1.15,2013-04-28 03:00:00,
2013-04-27 20:10:00,80.7,44.6,29.85,SSW,192,7.0,7.0,28,0.00,,,0.00,Wunderground v.1.15,2013-04-28 03:10:00,
2013-04-27 20:20:00,78.9,43.9,29.85,SSW,202,11.0,11.0,29,0.00,,,0.00,Wunderground v.1.15,2013-04-28 03:20:00,
2013-04-27 20:30:00,78.4,43.5,29.85,South,173,12.0,14.0,29,0.00,,,0.00,Wunderground v.1.15,2013-04-28 03:30:00,
2013-04-27 20:40:00,78.2,44.2,29.86,South,181,14.0,15.0,30,0.00,,,0.00,Wunderground v.1.15,2013-04-28 03:40:00,
2013-04-27 20:50:00,77.5,44.5,29.86,South,171,11.0,11.0,31,0.00,,,0.00,Wunderground v.1.15,2013-04-28 03:50:00,
2013-04-27 21:00:00,77.3,44.3,29.86,South,186,13.0,19.0,31,0.00,,,0.00,Wunderground v.1.15,2013-04-28 04:00:00,
2013-04-27 21:10:00,77.3,43.4,29.86,SSW,196,14.0,14.0,30,0.00,,,0.00,Wunderground v.1.15,2013-04-28 04:10:00,
2013-04-27 21:20:00,77.2,42.5,29.86,SSW,203,15.0,15.0,29,0.00,,,0.00,Wunderground v.1.15,2013-04-28 04:20:00,
2013-04-27 21:30:00,76.5,42.7,29.87,SW,215,12.0,12.0,30,0.00,,,0.00,Wunderground v.1.15,2013-04-28 04:30:00,
2013-04-27 21:40:00,76.2,42.5,29.88,SW,224,9.0,10.0,30,0.00,,,0.00,Wunderground v.1.15,2013-04-28 04:40:00,
2013-04-27 21:50:00,76.8,42.1,29.87,South,190,7.0,7.0,29,0.00,,,0.00,Wunderground v.1.15,2013-04-28 04:50:00,
2013-04-27 22:00:00,75.8,42.1,29.87,South,180,9.0,12.0,30,0.00,,,0.00,Wunderground v.1.15,2013-04-28 05:00:00,
2013-04-27 22:10:00,75.3,42.6,29.86,South,177,13.0,14.0,31,0.00,,,0.00,Wunderground v.1.15,2013-04-28 05:10:00,
2013-04-27 22:20:00,74.9,42.2,29.86,South,190,15.0,15.0,31,0.00,,,0.00,Wunderground v.1.15,2013-04-28 05:20:00,
2013-04-27 22:30:00,74.8,42.1,29.87,SSW,196,15.0,16.0,31,0.00,,,0.00,Wunderground v.1.15,2013-04-28 05:30:00,
2013-04-27 22:40:00,74.9,42.2,29.86,South,189,16.0,16.0,31,0.00,,,0.00,Wunderground v.1.15,2013-04-28 05:40:00,
2013-04-27 22:50:00,74.9,41.4,29.86,SSW,194,14.0,14.0,30,0.00,,,0.00,Wunderground v.1.15,2013-04-28 05:50:00,
2013-04-27 23:00:00,74.7,41.2,29.86,SSW,196,11.0,11.0,30,0.00,,,0.00,Wunderground v.1.15,2013-04-28 06:00:00,
2013-04-27 23:10:00,74.4,40.9,29.86,SSW,203,10.0,12.0,30,0.00,,,0.00,Wunderground v.1.15,2013-04-28 06:10:00,
2013-04-27 23:20:00,74.0,41.4,29.87,SSW,192,11.0,11.0,31,0.00,,,0.00,Wunderground v.1.15,2013-04-28 06:20:00,
2013-04-27 23:30:00,73.9,41.3,29.86,South,178,11.0,17.0,31,0.00,,,0.00,Wunderground v.1.15,2013-04-28 06:30:00,
2013-04-27 23:40:00,74.0,40.6,29.86,SSW,199,11.0,16.0,30,0.00,,,0.00,Wunderground v.1.15,2013-04-28 06:40:00,
2013-04-27 23:50:00,73.8,40.4,29.86,South,186,15.0,15.0,30,0.00,,,0.00,Wunderground v.1.15,2013-04-28 06:50:00,